GLD1744 SWJN-SBSO

Flight info

Callsign GLD1744
Flight time 2h 4m
Altitude 5500
Route DCT 1143S05810W 1207S05800W 1217S05721W 1214S05639W 1225S05556W 1228S05540W
Aircraft C152/L-SDFGIRY/S

Departure

Time 2026-04-21 00:25
Airport Juína Airport (SWJN)

Arrival

Time 2026-04-21 02:29
Airport Adolino Bedin Regional Airport (SBSO)
Time Latitude Longitude Altitude Speed Heading
2026-04-21 00:13 -11.41758 -58.70881 1068 ft 0 kts 168°
2026-04-21 00:16 -11.41762 -58.70880 1068 ft 0 kts 162°
2026-04-21 00:21 -11.41778 -58.70878 1068 ft 6 kts 192°
2026-04-21 00:21 -11.41807 -58.70940 1068 ft 7 kts 258°
2026-04-21 00:22 -11.41808 -58.70947 1068 ft 0 kts 257°
2026-04-21 00:22 -11.41812 -58.70961 1069 ft 7 kts 257°
2026-04-21 00:22 -11.41795 -58.71027 1070 ft 13 kts 328°
2026-04-21 00:22 -11.41684 -58.71057 1070 ft 19 kts 346°
2026-04-21 00:23 -11.41547 -58.71090 1069 ft 21 kts 347°
2026-04-21 00:23 -11.41407 -58.71119 1068 ft 20 kts 346°
2026-04-21 00:23 -11.41313 -58.71168 1069 ft 11 kts 34°
2026-04-21 00:23 -11.41317 -58.71142 1069 ft 0 kts 169°
2026-04-21 00:24 -11.41437 -58.71114 1068 ft 41 kts 168°
2026-04-21 00:24 -11.41881 -58.71017 1073 ft 84 kts 174°
2026-04-21 00:24 -11.42455 -58.70880 1223 ft 87 kts 166°
2026-04-21 00:25 -11.43029 -58.70700 1396 ft 88 kts 160°
2026-04-21 00:25 -11.43611 -58.70493 1629 ft 84 kts 162°
2026-04-21 00:25 -11.44166 -58.70294 1846 ft 87 kts 159°
2026-04-21 00:25 -11.44635 -58.69890 2061 ft 89 kts 129°
2026-04-21 00:26 -11.44931 -58.69346 2254 ft 89 kts 117°
2026-04-21 00:26 -11.45216 -58.68792 2448 ft 87 kts 117°
2026-04-21 00:26 -11.45512 -58.68248 2638 ft 88 kts 121°
2026-04-21 00:26 -11.45818 -58.67716 2830 ft 87 kts 120°
2026-04-21 00:27 -11.46144 -58.67191 3015 ft 88 kts 122°
2026-04-21 00:27 -11.46461 -58.66651 3187 ft 88 kts 119°
2026-04-21 00:27 -11.46751 -58.66112 3365 ft 88 kts 120°
2026-04-21 00:27 -11.47012 -58.65541 3605 ft 87 kts 107°
2026-04-21 00:28 -11.47212 -58.64967 3805 ft 87 kts 113°
2026-04-21 00:28 -11.47455 -58.64399 3958 ft 90 kts 111°
2026-04-21 00:28 -11.47655 -58.63797 4191 ft 89 kts 113°
2026-04-21 00:28 -11.47930 -58.63206 4341 ft 92 kts 119°
2026-04-21 00:29 -11.48227 -58.62638 4527 ft 90 kts 119°
2026-04-21 00:29 -11.48539 -58.62088 4704 ft 89 kts 122°
2026-04-21 00:29 -11.48850 -58.61534 4860 ft 89 kts 120°
2026-04-21 00:29 -11.49137 -58.60968 5025 ft 91 kts 119°
2026-04-21 00:30 -11.49439 -58.60407 5214 ft 90 kts 121°
2026-04-21 00:30 -11.49752 -58.59840 5341 ft 93 kts 120°
2026-04-21 00:30 -11.50029 -58.59264 5489 ft 94 kts 116°
2026-04-21 00:30 -11.50334 -58.58650 5534 ft 98 kts 119°
2026-04-21 00:31 -11.50659 -58.58024 5570 ft 100 kts 120°
2026-04-21 00:31 -11.50966 -58.57386 5603 ft 103 kts 119°
2026-04-21 00:31 -11.51288 -58.56743 5674 ft 99 kts 117°
2026-04-21 00:31 -11.51577 -58.56099 5702 ft 103 kts 115°
2026-04-21 00:32 -11.51936 -58.55440 5739 ft 107 kts 125°
2026-04-21 00:32 -11.52337 -58.54798 5697 ft 109 kts 120°
2026-04-21 00:32 -11.52701 -58.54104 5647 ft 111 kts 121°
2026-04-21 00:32 -11.53058 -58.53418 5585 ft 110 kts 119°
2026-04-21 00:33 -11.53395 -58.52736 5596 ft 106 kts 118°
2026-04-21 00:33 -11.53730 -58.52047 5497 ft 110 kts 117°
2026-04-21 00:33 -11.54083 -58.51370 5458 ft 108 kts 121°
2026-04-21 00:33 -11.54426 -58.50690 5339 ft 108 kts 117°
2026-04-21 00:34 -11.54750 -58.50003 5245 ft 108 kts 116°
2026-04-21 00:34 -11.55074 -58.49316 5134 ft 109 kts 118°
2026-04-21 00:34 -11.55423 -58.48645 5091 ft 104 kts 121°
2026-04-21 00:34 -11.55808 -58.48011 5019 ft 105 kts 126°
2026-04-21 00:35 -11.56217 -58.47420 5043 ft 101 kts 127°
2026-04-21 00:35 -11.56581 -58.46890 5241 ft 83 kts 128°
2026-04-21 00:35 -11.56968 -58.46414 5244 ft 88 kts 131°
2026-04-21 00:35 -11.57386 -58.45970 5315 ft 89 kts 140°
2026-04-21 00:36 -11.57860 -58.45552 5414 ft 87 kts 136°
2026-04-21 00:36 -11.58285 -58.45106 5500 ft 94 kts 135°
2026-04-21 00:36 -11.58732 -58.44605 5596 ft 93 kts 132°
2026-04-21 00:36 -11.59173 -58.44094 5686 ft 96 kts 129°
2026-04-21 00:37 -11.59650 -58.43522 5563 ft 107 kts 132°
2026-04-21 00:37 -11.60069 -58.42932 5670 ft 100 kts 114°
2026-04-21 00:37 -11.60326 -58.42240 5688 ft 104 kts 111°
2026-04-21 00:37 -11.60561 -58.41545 5765 ft 104 kts 110°
2026-04-21 00:38 -11.60755 -58.40843 5760 ft 104 kts 104°
2026-04-21 00:38 -11.60836 -58.40100 5715 ft 105 kts 93°
2026-04-21 00:38 -11.60982 -58.39368 5688 ft 107 kts 111°
2026-04-21 00:38 -11.61275 -58.38661 5612 ft 106 kts 115°
2026-04-21 00:39 -11.61588 -58.38000 5654 ft 106 kts 120°
2026-04-21 00:39 -11.61915 -58.37329 5658 ft 106 kts 117°
2026-04-21 00:39 -11.62215 -58.36614 5532 ft 110 kts 110°
2026-04-21 00:39 -11.62512 -58.35918 5476 ft 108 kts 118°
2026-04-21 00:40 -11.62862 -58.35250 5454 ft 105 kts 120°
2026-04-21 00:40 -11.63225 -58.34616 5417 ft 106 kts 121°
2026-04-21 00:40 -11.63527 -58.33953 5416 ft 103 kts 113°
2026-04-21 00:40 -11.63818 -58.33252 5328 ft 106 kts 117°
2026-04-21 00:41 -11.64224 -58.32648 5350 ft 105 kts 129°
2026-04-21 00:41 -11.64661 -58.32049 5458 ft 106 kts 123°
2026-04-21 00:41 -11.64982 -58.31361 5473 ft 108 kts 108°
2026-04-21 00:41 -11.65067 -58.30603 5481 ft 108 kts 95°
2026-04-21 00:42 -11.65095 -58.29840 5441 ft 106 kts 95°
2026-04-21 00:42 -11.65294 -58.29098 5338 ft 110 kts 114°
2026-04-21 00:42 -11.65616 -58.28416 5359 ft 105 kts 117°
2026-04-21 00:42 -11.65940 -58.27768 5366 ft 102 kts 119°
2026-04-21 00:43 -11.66250 -58.27142 5419 ft 96 kts 118°
2026-04-21 00:43 -11.66580 -58.26528 5434 ft 99 kts 121°
2026-04-21 00:43 -11.66934 -58.25934 5470 ft 98 kts 118°
2026-04-21 00:43 -11.67259 -58.25318 5463 ft 99 kts 123°
2026-04-21 00:44 -11.67607 -58.24708 5562 ft 98 kts 117°
2026-04-21 00:44 -11.67843 -58.24043 5557 ft 107 kts 112°
2026-04-21 00:44 -11.68168 -58.23386 5637 ft 101 kts 116°
2026-04-21 00:45 -11.68832 -58.22056 5539 ft 108 kts 117°
2026-04-21 00:45 -11.69170 -58.21401 5605 ft 102 kts 119°
2026-04-21 00:45 -11.69565 -58.20782 5620 ft 106 kts 125°
2026-04-21 00:45 -11.69958 -58.20164 5724 ft 102 kts 122°
2026-04-21 00:46 -11.70319 -58.19539 5643 ft 106 kts 123°
2026-04-21 00:46 -11.70676 -58.18887 5630 ft 102 kts 117°
2026-04-21 00:46 -11.71006 -58.18242 5586 ft 104 kts 121°
2026-04-21 00:46 -11.71394 -58.17621 5552 ft 103 kts 128°
2026-04-21 00:47 -11.71901 -58.17087 5572 ft 105 kts 139°
2026-04-21 00:47 -11.72524 -58.16718 5605 ft 104 kts 158°
2026-04-21 00:47 -11.73177 -58.16417 5611 ft 103 kts 153°
2026-04-21 00:47 -11.73827 -58.16093 5629 ft 103 kts 154°
2026-04-21 00:48 -11.74478 -58.15774 5647 ft 104 kts 155°
2026-04-21 00:48 -11.75131 -58.15467 5700 ft 104 kts 157°
2026-04-21 00:48 -11.75795 -58.15175 5725 ft 104 kts 158°
2026-04-21 00:48 -11.76474 -58.14907 5697 ft 108 kts 157°
2026-04-21 00:49 -11.77165 -58.14565 5594 ft 110 kts 151°
2026-04-21 00:49 -11.77826 -58.14172 5531 ft 108 kts 149°
2026-04-21 00:49 -11.78464 -58.13803 5534 ft 105 kts 150°
2026-04-21 00:49 -11.79092 -58.13421 5540 ft 105 kts 144°
2026-04-21 00:50 -11.79711 -58.13029 5564 ft 105 kts 150°
2026-04-21 00:50 -11.80345 -58.12682 5551 ft 104 kts 152°
2026-04-21 00:50 -11.80995 -58.12349 5501 ft 105 kts 153°
2026-04-21 00:50 -11.81644 -58.12014 5465 ft 104 kts 151°
2026-04-21 00:51 -11.82073 -58.11792 5438 ft 105 kts 154°
2026-04-21 00:51 -11.82935 -58.11366 5403 ft 103 kts 153°
2026-04-21 00:51 -11.83585 -58.11014 5335 ft 105 kts 151°
2026-04-21 00:51 -11.84239 -58.10688 5326 ft 104 kts 152°
2026-04-21 00:52 -11.84860 -58.10327 5295 ft 106 kts 150°
2026-04-21 00:52 -11.85498 -58.09999 5321 ft 102 kts 153°
2026-04-21 00:52 -11.85947 -58.09797 5265 ft 105 kts 157°
2026-04-21 00:52 -11.86592 -58.09509 5330 ft 97 kts 156°
2026-04-21 00:53 -11.87202 -58.09205 5335 ft 99 kts 153°
2026-04-21 00:53 -11.87825 -58.08943 5363 ft 99 kts 157°
2026-04-21 00:53 -11.88477 -58.08668 5327 ft 103 kts 156°
2026-04-21 00:53 -11.89120 -58.08383 5348 ft 100 kts 155°
2026-04-21 00:54 -11.89768 -58.08096 5329 ft 102 kts 156°
2026-04-21 00:54 -11.90408 -58.07807 5364 ft 98 kts 154°
2026-04-21 00:54 -11.90994 -58.07496 5454 ft 94 kts 152°
2026-04-21 00:54 -11.91600 -58.07208 5585 ft 100 kts 154°
2026-04-21 00:55 -11.92246 -58.06886 5574 ft 105 kts 153°
2026-04-21 00:55 -11.92926 -58.06588 5525 ft 105 kts 155°
2026-04-21 00:55 -11.93580 -58.06249 5484 ft 104 kts 152°
2026-04-21 00:55 -11.94221 -58.05924 5484 ft 101 kts 155°
2026-04-21 00:56 -11.94855 -58.05614 5477 ft 102 kts 155°
2026-04-21 00:56 -11.95521 -58.05359 5470 ft 102 kts 159°
2026-04-21 00:56 -11.96178 -58.05092 5460 ft 102 kts 152°
2026-04-21 00:56 -11.96829 -58.04807 5442 ft 102 kts 160°
2026-04-21 00:57 -11.97505 -58.04592 5443 ft 101 kts 162°
2026-04-21 00:57 -11.98193 -58.04417 5431 ft 102 kts 168°
2026-04-21 00:57 -11.98904 -58.04314 5400 ft 104 kts 169°
2026-04-21 00:57 -11.99605 -58.04143 5400 ft 105 kts 162°
2026-04-21 00:58 -12.00305 -58.03907 5499 ft 104 kts 159°
2026-04-21 00:58 -12.00961 -58.03653 5552 ft 104 kts 161°
2026-04-21 00:58 -12.01660 -58.03435 5631 ft 103 kts 165°
2026-04-21 00:58 -12.02363 -58.03293 5698 ft 105 kts 165°
2026-04-21 00:59 -12.03075 -58.03066 5670 ft 112 kts 158°
2026-04-21 00:59 -12.03811 -58.02757 5592 ft 114 kts 158°
2026-04-21 00:59 -12.04503 -58.02502 5760 ft 101 kts 161°
2026-04-21 00:59 -12.05203 -58.02269 5738 ft 109 kts 158°
2026-04-21 01:00 -12.05932 -58.02006 5644 ft 112 kts 161°
2026-04-21 01:00 -12.06677 -58.01796 5640 ft 110 kts 166°
2026-04-21 01:00 -12.07427 -58.01631 5586 ft 112 kts 165°
2026-04-21 01:00 -12.08156 -58.01415 5592 ft 109 kts 161°
2026-04-21 01:01 -12.08889 -58.01196 5559 ft 111 kts 163°
2026-04-21 01:01 -12.09620 -58.00956 5519 ft 110 kts 158°
2026-04-21 01:01 -12.10316 -58.00630 5475 ft 110 kts 150°
2026-04-21 01:01 -12.10958 -58.00210 5435 ft 109 kts 141°
2026-04-21 01:02 -12.11478 -57.99648 5373 ft 110 kts 124°
2026-04-21 01:02 -12.11808 -57.98963 5364 ft 107 kts 109°
2026-04-21 01:02 -12.11995 -57.98214 5294 ft 110 kts 101°
2026-04-21 01:02 -12.12182 -57.97476 5308 ft 106 kts 109°
2026-04-21 01:03 -12.12427 -57.96766 5306 ft 108 kts 112°
2026-04-21 01:03 -12.12720 -57.96048 5290 ft 107 kts 111°
2026-04-21 01:03 -12.12968 -57.95336 5238 ft 109 kts 109°
2026-04-21 01:03 -12.13161 -57.94616 5289 ft 102 kts 104°
2026-04-21 01:04 -12.13389 -57.93950 5318 ft 100 kts 109°
2026-04-21 01:04 -12.13558 -57.93272 5394 ft 97 kts 103°
2026-04-21 01:04 -12.13749 -57.92622 5447 ft 94 kts 109°
2026-04-21 01:04 -12.13960 -57.91989 5505 ft 95 kts 105°
2026-04-21 01:05 -12.14139 -57.91326 5594 ft 98 kts 105°
2026-04-21 01:05 -12.14314 -57.90650 5647 ft 102 kts 104°
2026-04-21 01:05 -12.14455 -57.89944 5683 ft 102 kts 101°
2026-04-21 01:05 -12.14603 -57.89219 5616 ft 109 kts 104°
2026-04-21 01:06 -12.14780 -57.88488 5608 ft 105 kts 106°
2026-04-21 01:06 -12.14995 -57.87780 5547 ft 105 kts 107°
2026-04-21 01:06 -12.15192 -57.87052 5561 ft 107 kts 104°
2026-04-21 01:06 -12.15375 -57.86319 5541 ft 106 kts 103°
2026-04-21 01:07 -12.15515 -57.85572 5483 ft 107 kts 99°
2026-04-21 01:07 -12.15622 -57.84815 5419 ft 109 kts 100°
2026-04-21 01:07 -12.15778 -57.84065 5462 ft 106 kts 103°
2026-04-21 01:07 -12.15927 -57.83324 5449 ft 108 kts 101°
2026-04-21 01:08 -12.16057 -57.82570 5461 ft 106 kts 98°
2026-04-21 01:08 -12.16167 -57.81828 5404 ft 107 kts 103°
2026-04-21 01:08 -12.16346 -57.81105 5469 ft 102 kts 105°
2026-04-21 01:08 -12.16538 -57.80396 5482 ft 105 kts 106°
2026-04-21 01:09 -12.16743 -57.79661 5510 ft 107 kts 105°
2026-04-21 01:09 -12.16917 -57.78925 5553 ft 108 kts 100°
2026-04-21 01:09 -12.17092 -57.78186 5543 ft 105 kts 106°
2026-04-21 01:09 -12.17318 -57.77460 5446 ft 109 kts 109°
2026-04-21 01:10 -12.17569 -57.76748 5490 ft 106 kts 112°
2026-04-21 01:10 -12.17829 -57.76042 5455 ft 107 kts 108°
2026-04-21 01:10 -12.18026 -57.75305 5384 ft 107 kts 105°
2026-04-21 01:10 -12.18223 -57.74577 5387 ft 105 kts 104°
2026-04-21 01:11 -12.18391 -57.73862 5371 ft 104 kts 103°
2026-04-21 01:11 -12.18575 -57.73147 5300 ft 107 kts 108°
2026-04-21 01:11 -12.18771 -57.72418 5260 ft 103 kts 103°
2026-04-21 01:11 -12.18933 -57.71736 5405 ft 95 kts 104°
2026-04-21 01:12 -12.19145 -57.71084 5391 ft 99 kts 109°
2026-04-21 01:12 -12.19351 -57.70399 5367 ft 101 kts 106°
2026-04-21 01:12 -12.19565 -57.69718 5357 ft 101 kts 109°
2026-04-21 01:12 -12.19757 -57.69031 5358 ft 100 kts 101°
2026-04-21 01:13 -12.19908 -57.68331 5361 ft 103 kts 101°
2026-04-21 01:13 -12.20032 -57.67623 5476 ft 99 kts 97°
2026-04-21 01:13 -12.20127 -57.66917 5498 ft 103 kts 102°
2026-04-21 01:13 -12.20285 -57.66209 5535 ft 102 kts 101°
2026-04-21 01:14 -12.20424 -57.65499 5565 ft 102 kts 100°
2026-04-21 01:14 -12.20558 -57.64792 5567 ft 105 kts 104°
2026-04-21 01:14 -12.20733 -57.64057 5566 ft 104 kts 102°
2026-04-21 01:14 -12.20859 -57.63348 5560 ft 102 kts 98°
2026-04-21 01:15 -12.20943 -57.62637 5559 ft 101 kts 95°
2026-04-21 01:15 -12.20975 -57.61919 5542 ft 101 kts 95°
2026-04-21 01:15 -12.21091 -57.61208 5533 ft 101 kts 101°
2026-04-21 01:15 -12.21184 -57.60497 5527 ft 101 kts 92°
2026-04-21 01:16 -12.21108 -57.59782 5525 ft 103 kts 75°
2026-04-21 01:16 -12.20883 -57.59093 5611 ft 101 kts 81°
2026-04-21 01:16 -12.20844 -57.58374 5663 ft 102 kts 91°
2026-04-21 01:16 -12.20905 -57.57659 5709 ft 102 kts 103°
2026-04-21 01:17 -12.21118 -57.56962 5795 ft 100 kts 109°
2026-04-21 01:17 -12.21330 -57.56290 5777 ft 102 kts 104°
2026-04-21 01:17 -12.21456 -57.55576 5763 ft 101 kts 97°
2026-04-21 01:17 -12.21552 -57.54866 5735 ft 103 kts 105°
2026-04-21 01:18 -12.21797 -57.54180 5720 ft 101 kts 109°
2026-04-21 01:18 -12.22027 -57.53492 5677 ft 105 kts 107°
2026-04-21 01:18 -12.22234 -57.52782 5681 ft 104 kts 104°
2026-04-21 01:18 -12.22440 -57.52064 5623 ft 105 kts 106°
2026-04-21 01:19 -12.22660 -57.51353 5571 ft 107 kts 107°
2026-04-21 01:19 -12.22863 -57.50626 5605 ft 106 kts 103°
2026-04-21 01:19 -12.23049 -57.49890 5674 ft 107 kts 106°
2026-04-21 01:19 -12.23263 -57.49180 5750 ft 103 kts 108°
2026-04-21 01:20 -12.23487 -57.48458 5613 ft 110 kts 105°
2026-04-21 01:20 -12.23682 -57.47691 5471 ft 112 kts 104°
2026-04-21 01:20 -12.23870 -57.46948 5451 ft 105 kts 104°
2026-04-21 01:20 -12.24070 -57.46220 5391 ft 107 kts 106°
2026-04-21 01:21 -12.24283 -57.45503 5370 ft 106 kts 107°
2026-04-21 01:21 -12.24492 -57.44778 5441 ft 105 kts 107°
2026-04-21 01:21 -12.24739 -57.44068 5465 ft 107 kts 110°
2026-04-21 01:21 -12.24996 -57.43356 5499 ft 108 kts 109°
2026-04-21 01:22 -12.25238 -57.42624 5472 ft 107 kts 108°
2026-04-21 01:22 -12.25474 -57.41917 5416 ft 106 kts 109°
2026-04-21 01:22 -12.25708 -57.41227 5435 ft 100 kts 110°
2026-04-21 01:22 -12.25952 -57.40559 5446 ft 98 kts 111°
2026-04-21 01:23 -12.26204 -57.39899 5392 ft 103 kts 111°
2026-04-21 01:23 -12.26466 -57.39214 5444 ft 104 kts 110°
2026-04-21 01:23 -12.26724 -57.38504 5429 ft 108 kts 109°
2026-04-21 01:23 -12.26976 -57.37776 5406 ft 109 kts 110°
2026-04-21 01:24 -12.27255 -57.37058 5387 ft 107 kts 110°
2026-04-21 01:24 -12.27542 -57.36376 5456 ft 100 kts 114°
2026-04-21 01:24 -12.27816 -57.35739 5513 ft 99 kts 110°
2026-04-21 01:24 -12.27987 -57.35057 5531 ft 100 kts 95°
2026-04-21 01:25 -12.27916 -57.34350 5622 ft 99 kts 73°
2026-04-21 01:25 -12.27680 -57.33689 5675 ft 100 kts 77°
2026-04-21 01:25 -12.27540 -57.32994 5728 ft 99 kts 79°
2026-04-21 01:25 -12.27397 -57.32278 5664 ft 107 kts 81°
2026-04-21 01:26 -12.27305 -57.31500 5547 ft 113 kts 85°
2026-04-21 01:26 -12.27237 -57.30712 5532 ft 109 kts 84°
2026-04-21 01:26 -12.27152 -57.29954 5540 ft 107 kts 86°
2026-04-21 01:26 -12.27101 -57.29184 5536 ft 109 kts 84°
2026-04-21 01:27 -12.27003 -57.28420 5545 ft 108 kts 83°
2026-04-21 01:27 -12.26945 -57.27670 5497 ft 105 kts 89°
2026-04-21 01:27 -12.26924 -57.26940 5535 ft 99 kts 88°
2026-04-21 01:27 -12.26867 -57.26233 5621 ft 101 kts 87°
2026-04-21 01:28 -12.26785 -57.25532 5729 ft 100 kts 82°
2026-04-21 01:28 -12.26686 -57.24817 5746 ft 105 kts 83°
2026-04-21 01:28 -12.26606 -57.24047 5606 ft 110 kts 84°
2026-04-21 01:28 -12.26499 -57.23282 5536 ft 108 kts 82°
2026-04-21 01:29 -12.26405 -57.22518 5419 ft 110 kts 83°
2026-04-21 01:29 -12.26320 -57.21759 5413 ft 103 kts 85°
2026-04-21 01:29 -12.26293 -57.21042 5557 ft 99 kts 90°
2026-04-21 01:29 -12.26262 -57.20334 5590 ft 102 kts 87°
2026-04-21 01:30 -12.26236 -57.19629 5616 ft 99 kts 88°
2026-04-21 01:30 -12.26188 -57.18918 5604 ft 100 kts 85°
2026-04-21 01:30 -12.26128 -57.18214 5611 ft 100 kts 86°
2026-04-21 01:30 -12.26055 -57.17505 5605 ft 100 kts 80°
2026-04-21 01:31 -12.25839 -57.16832 5599 ft 101 kts 63°
2026-04-21 01:31 -12.25390 -57.16282 5587 ft 102 kts 39°
2026-04-21 01:31 -12.24736 -57.16004 5571 ft 104 kts
2026-04-21 01:31 -12.24020 -57.16112 5555 ft 106 kts 338°
2026-04-21 01:32 -12.23388 -57.16500 5528 ft 106 kts 341°
2026-04-21 01:32 -12.22659 -57.16534 5494 ft 105 kts 16°
2026-04-21 01:32 -12.22063 -57.16149 5465 ft 103 kts 51°
2026-04-21 01:32 -12.21761 -57.15513 5467 ft 100 kts 79°
2026-04-21 01:33 -12.21737 -57.14790 5471 ft 100 kts 92°
2026-04-21 01:33 -12.21753 -57.14096 5477 ft 100 kts 88°
2026-04-21 01:33 -12.21763 -57.13386 5476 ft 100 kts 93°
2026-04-21 01:33 -12.21773 -57.12679 5482 ft 99 kts 89°
2026-04-21 01:34 -12.21818 -57.11970 5474 ft 100 kts 96°
2026-04-21 01:34 -12.21878 -57.11266 5485 ft 100 kts 94°
2026-04-21 01:34 -12.21930 -57.10559 5484 ft 100 kts 93°
2026-04-21 01:34 -12.21976 -57.09853 5482 ft 100 kts 98°
2026-04-21 01:35 -12.22172 -57.09169 5477 ft 101 kts 112°
2026-04-21 01:35 -12.22451 -57.08518 5490 ft 100 kts 112°
2026-04-21 01:35 -12.22651 -57.07839 5485 ft 100 kts 99°
2026-04-21 01:35 -12.22671 -57.07130 5490 ft 100 kts 85°
2026-04-21 01:36 -12.22576 -57.06430 5497 ft 99 kts 79°
2026-04-21 01:36 -12.22417 -57.05751 5521 ft 98 kts 79°
2026-04-21 01:36 -12.22337 -57.05054 5525 ft 99 kts 86°
2026-04-21 01:36 -12.22236 -57.04364 5535 ft 99 kts 80°
2026-04-21 01:37 -12.22159 -57.03662 5534 ft 99 kts 87°
2026-04-21 01:37 -12.22134 -57.02967 5555 ft 98 kts 88°
2026-04-21 01:37 -12.22080 -57.02270 5556 ft 98 kts 85°
2026-04-21 01:37 -12.22016 -57.01575 5566 ft 98 kts 85°
2026-04-21 01:38 -12.21960 -57.00888 5575 ft 98 kts 82°
2026-04-21 01:38 -12.21723 -57.00232 5567 ft 100 kts 56°
2026-04-21 01:38 -12.21196 -56.99758 5590 ft 102 kts 42°
2026-04-21 01:38 -12.20776 -56.99196 5642 ft 101 kts 66°
2026-04-21 01:39 -12.20587 -56.98515 5669 ft 100 kts 84°
2026-04-21 01:39 -12.20585 -56.97805 5704 ft 99 kts 92°
2026-04-21 01:39 -12.20604 -56.97093 5693 ft 102 kts 91°
2026-04-21 01:39 -12.20628 -56.96365 5667 ft 102 kts 94°
2026-04-21 01:40 -12.20642 -56.95648 5677 ft 98 kts 90°
2026-04-21 01:40 -12.20653 -56.94943 5654 ft 100 kts 92°
2026-04-21 01:40 -12.20684 -56.94477 5652 ft 99 kts 94°
2026-04-21 01:40 -12.20697 -56.93514 5584 ft 103 kts 89°
2026-04-21 01:41 -12.20663 -56.93046 5684 ft 96 kts 84°
2026-04-21 01:41 -12.20613 -56.92350 5711 ft 103 kts 88°
2026-04-21 01:41 -12.20593 -56.91578 5550 ft 113 kts 90°
2026-04-21 01:41 -12.20558 -56.90802 5618 ft 99 kts 84°
2026-04-21 01:42 -12.20511 -56.90082 5606 ft 105 kts 87°
2026-04-21 01:42 -12.20481 -56.89340 5649 ft 102 kts 88°
2026-04-21 01:42 -12.20484 -56.88588 5570 ft 109 kts 91°
2026-04-21 01:42 -12.20517 -56.87809 5463 ft 107 kts 93°
2026-04-21 01:43 -12.20550 -56.87055 5429 ft 106 kts 92°
2026-04-21 01:43 -12.20582 -56.86303 5453 ft 106 kts 91°
2026-04-21 01:43 -12.20479 -56.85559 5455 ft 107 kts 75°
2026-04-21 01:43 -12.20242 -56.84831 5411 ft 109 kts 71°
2026-04-21 01:44 -12.19986 -56.84113 5395 ft 106 kts 71°
2026-04-21 01:44 -12.19733 -56.83410 5351 ft 104 kts 70°
2026-04-21 01:44 -12.19483 -56.82719 5359 ft 103 kts 71°
2026-04-21 01:44 -12.19224 -56.82034 5324 ft 105 kts 67°
2026-04-21 01:45 -12.18922 -56.81364 5331 ft 104 kts 66°
2026-04-21 01:45 -12.18725 -56.80642 5311 ft 105 kts 82°
2026-04-21 01:45 -12.18619 -56.79914 5310 ft 103 kts 83°
2026-04-21 01:45 -12.18551 -56.79168 5315 ft 104 kts 84°
2026-04-21 01:46 -12.18494 -56.78441 5332 ft 104 kts 86°
2026-04-21 01:46 -12.18398 -56.77715 5322 ft 104 kts 83°
2026-04-21 01:46 -12.18410 -56.76979 5304 ft 105 kts 102°
2026-04-21 01:46 -12.18653 -56.76272 5297 ft 103 kts 111°
2026-04-21 01:47 -12.18929 -56.75613 5325 ft 99 kts 115°
2026-04-21 01:47 -12.19245 -56.74990 5369 ft 96 kts 115°
2026-04-21 01:47 -12.19547 -56.74391 5442 ft 95 kts 116°
2026-04-21 01:47 -12.19853 -56.73790 5467 ft 96 kts 115°
2026-04-21 01:48 -12.20147 -56.73177 5512 ft 97 kts 115°
2026-04-21 01:48 -12.20448 -56.72547 5573 ft 98 kts 114°
2026-04-21 01:48 -12.20732 -56.71904 5605 ft 101 kts 114°
2026-04-21 01:48 -12.21024 -56.71248 5647 ft 101 kts 111°
2026-04-21 01:49 -12.21264 -56.70563 5669 ft 103 kts 107°
2026-04-21 01:49 -12.21457 -56.69877 5746 ft 101 kts 105°
2026-04-21 01:49 -12.21660 -56.69177 5762 ft 103 kts 103°
2026-04-21 01:49 -12.21828 -56.68467 5759 ft 106 kts 102°
2026-04-21 01:50 -12.21965 -56.67694 5621 ft 113 kts 98°
2026-04-21 01:50 -12.22047 -56.66907 5534 ft 111 kts 93°
2026-04-21 01:50 -12.22056 -56.66162 5617 ft 100 kts 89°
2026-04-21 01:50 -12.22096 -56.65443 5592 ft 105 kts 98°
2026-04-21 01:51 -12.22141 -56.64712 5600 ft 102 kts 85°
2026-04-21 01:51 -12.22150 -56.63981 5589 ft 105 kts 98°
2026-04-21 01:51 -12.22301 -56.63267 5650 ft 101 kts 104°
2026-04-21 01:51 -12.22491 -56.62568 5600 ft 103 kts 104°
2026-04-21 01:52 -12.22673 -56.61853 5614 ft 104 kts 109°
2026-04-21 01:52 -12.23159 -56.60475 5518 ft 106 kts 102°
2026-04-21 01:52 -12.23290 -56.59746 5557 ft 103 kts 105°
2026-04-21 01:53 -12.23496 -56.59035 5496 ft 105 kts 105°
2026-04-21 01:53 -12.23677 -56.58329 5520 ft 102 kts 105°
2026-04-21 01:53 -12.23892 -56.57632 5473 ft 104 kts 107°
2026-04-21 01:53 -12.24087 -56.56931 5480 ft 102 kts 107°
2026-04-21 01:54 -12.24336 -56.56243 5485 ft 104 kts 109°
2026-04-21 01:54 -12.24589 -56.55558 5434 ft 104 kts 111°
2026-04-21 01:54 -12.24873 -56.54881 5408 ft 102 kts 110°
2026-04-21 01:54 -12.25072 -56.54184 5389 ft 103 kts 99°
2026-04-21 01:55 -12.25081 -56.53456 5334 ft 103 kts 85°
2026-04-21 01:55 -12.25021 -56.52733 5265 ft 103 kts 95°
2026-04-21 01:55 -12.25225 -56.52024 5221 ft 104 kts 115°
2026-04-21 01:55 -12.25549 -56.51367 5305 ft 102 kts 113°
2026-04-21 01:56 -12.25814 -56.50703 5283 ft 102 kts 107°
2026-04-21 01:56 -12.25822 -56.49968 5206 ft 109 kts 66°
2026-04-21 01:56 -12.25521 -56.49287 5127 ft 105 kts 88°
2026-04-21 01:56 -12.25750 -56.48567 5051 ft 109 kts 118°
2026-04-21 01:57 -12.26129 -56.47948 5223 ft 100 kts 121°
2026-04-21 01:57 -12.26495 -56.47325 5236 ft 104 kts 120°
2026-04-21 01:57 -12.26873 -56.46706 5266 ft 101 kts 122°
2026-04-21 01:57 -12.27276 -56.46109 5278 ft 103 kts 125°
2026-04-21 01:58 -12.27683 -56.45512 5303 ft 103 kts 122°
2026-04-21 01:58 -12.28071 -56.44894 5355 ft 103 kts 120°
2026-04-21 01:58 -12.28405 -56.44244 5444 ft 100 kts 114°
2026-04-21 01:58 -12.28726 -56.43605 5371 ft 104 kts 114°
2026-04-21 01:59 -12.29001 -56.42922 5355 ft 101 kts 110°
2026-04-21 01:59 -12.29216 -56.42248 5337 ft 101 kts 104°
2026-04-21 01:59 -12.29391 -56.41545 5298 ft 100 kts 105°
2026-04-21 01:59 -12.29590 -56.40895 5366 ft 95 kts 107°
2026-04-21 02:00 -12.29757 -56.40226 5367 ft 97 kts 103°
2026-04-21 02:00 -12.29913 -56.39566 5403 ft 95 kts 103°
2026-04-21 02:00 -12.30089 -56.38900 5405 ft 97 kts 105°
2026-04-21 02:00 -12.30310 -56.38253 5429 ft 97 kts 113°
2026-04-21 02:01 -12.30567 -56.37619 5452 ft 96 kts 105°
2026-04-21 02:01 -12.30736 -56.36958 5476 ft 96 kts 103°
2026-04-21 02:01 -12.30942 -56.36305 5487 ft 96 kts 109°
2026-04-21 02:01 -12.31201 -56.35663 5465 ft 100 kts 110°
2026-04-21 02:02 -12.31450 -56.34997 5435 ft 100 kts 110°
2026-04-21 02:02 -12.31694 -56.34335 5471 ft 98 kts 110°
2026-04-21 02:02 -12.31964 -56.33704 5595 ft 96 kts 115°
2026-04-21 02:02 -12.32250 -56.33097 5650 ft 96 kts 116°
2026-04-21 02:03 -12.32523 -56.32470 5612 ft 98 kts 111°
2026-04-21 02:03 -12.32808 -56.31820 5621 ft 100 kts 113°
2026-04-21 02:03 -12.33104 -56.31171 5604 ft 100 kts 111°
2026-04-21 02:03 -12.33335 -56.30518 5688 ft 96 kts 108°
2026-04-21 02:04 -12.33539 -56.29865 5738 ft 96 kts 107°
2026-04-21 02:04 -12.33771 -56.29225 5806 ft 95 kts 106°
2026-04-21 02:04 -12.33972 -56.28576 5851 ft 96 kts 107°
2026-04-21 02:04 -12.34187 -56.27930 5922 ft 96 kts 107°
2026-04-21 02:05 -12.34403 -56.27284 5935 ft 99 kts 106°
2026-04-21 02:05 -12.34540 -56.26613 5986 ft 95 kts 103°
2026-04-21 02:05 -12.34750 -56.25954 5931 ft 100 kts 105°
2026-04-21 02:05 -12.34902 -56.25245 5858 ft 104 kts 97°
2026-04-21 02:06 -12.35007 -56.24485 5632 ft 111 kts 98°
2026-04-21 02:06 -12.35129 -56.23726 5575 ft 106 kts 99°
2026-04-21 02:06 -12.35285 -56.22997 5470 ft 106 kts 101°
2026-04-21 02:06 -12.35436 -56.22255 5388 ft 106 kts 102°
2026-04-21 02:07 -12.35598 -56.21539 5370 ft 104 kts 100°
2026-04-21 02:07 -12.35772 -56.20821 5349 ft 100 kts 102°
2026-04-21 02:07 -12.35919 -56.20127 5318 ft 103 kts 99°
2026-04-21 02:07 -12.36044 -56.19422 5375 ft 99 kts 98°
2026-04-21 02:08 -12.36158 -56.18719 5355 ft 102 kts 101°
2026-04-21 02:08 -12.36323 -56.18020 5376 ft 100 kts 102°
2026-04-21 02:08 -12.36474 -56.17323 5376 ft 101 kts 102°
2026-04-21 02:08 -12.36597 -56.16623 5361 ft 100 kts 98°
2026-04-21 02:09 -12.36754 -56.15920 5352 ft 101 kts 102°
2026-04-21 02:09 -12.36898 -56.15226 5371 ft 99 kts 99°
2026-04-21 02:09 -12.37011 -56.14521 5326 ft 101 kts 98°
2026-04-21 02:09 -12.37126 -56.13816 5323 ft 100 kts 100°
2026-04-21 02:10 -12.37276 -56.13119 5312 ft 100 kts 101°
2026-04-21 02:10 -12.37369 -56.12416 5284 ft 101 kts 95°
2026-04-21 02:10 -12.37473 -56.11709 5290 ft 100 kts 101°
2026-04-21 02:10 -12.37625 -56.11015 5309 ft 100 kts 101°
2026-04-21 02:11 -12.37663 -56.10306 5290 ft 102 kts 82°
2026-04-21 02:11 -12.37401 -56.09641 5362 ft 100 kts 61°
2026-04-21 02:11 -12.37185 -56.08969 5366 ft 101 kts 83°
2026-04-21 02:11 -12.37200 -56.08260 5378 ft 100 kts 94°
2026-04-21 02:12 -12.37252 -56.07552 5353 ft 100 kts 92°
2026-04-21 02:12 -12.37402 -56.06840 5335 ft 103 kts 108°
2026-04-21 02:12 -12.37607 -56.06134 5260 ft 104 kts 103°
2026-04-21 02:12 -12.37766 -56.05418 5274 ft 102 kts 104°
2026-04-21 02:13 -12.37963 -56.04735 5371 ft 99 kts 104°
2026-04-21 02:13 -12.38115 -56.04047 5421 ft 101 kts 100°
2026-04-21 02:13 -12.38243 -56.03352 5406 ft 99 kts 99°
2026-04-21 02:13 -12.38374 -56.02651 5379 ft 100 kts 100°
2026-04-21 02:14 -12.38519 -56.01954 5343 ft 100 kts 101°
2026-04-21 02:14 -12.38621 -56.01268 5315 ft 100 kts 97°
2026-04-21 02:14 -12.38768 -56.00566 5349 ft 99 kts 108°
2026-04-21 02:14 -12.38968 -55.99892 5327 ft 102 kts 101°
2026-04-21 02:15 -12.39138 -55.99200 5402 ft 98 kts 104°
2026-04-21 02:15 -12.39324 -55.98522 5415 ft 101 kts 105°
2026-04-21 02:15 -12.39530 -55.97843 5448 ft 99 kts 103°
2026-04-21 02:15 -12.39680 -55.97152 5450 ft 100 kts 100°
2026-04-21 02:16 -12.39779 -55.96459 5483 ft 97 kts 95°
2026-04-21 02:16 -12.39908 -55.95764 5408 ft 102 kts 104°
2026-04-21 02:16 -12.40101 -55.95086 5423 ft 98 kts 103°
2026-04-21 02:16 -12.40254 -55.94393 5403 ft 101 kts 104°
2026-04-21 02:17 -12.40471 -55.93719 5456 ft 98 kts 105°
2026-04-21 02:17 -12.40650 -55.93039 5452 ft 100 kts 99°
2026-04-21 02:17 -12.40794 -55.92348 5441 ft 99 kts 103°
2026-04-21 02:17 -12.40957 -55.91663 5431 ft 99 kts 99°
2026-04-21 02:18 -12.41059 -55.90965 5411 ft 99 kts 96°
2026-04-21 02:18 -12.41145 -55.90268 5398 ft 99 kts 96°
2026-04-21 02:18 -12.41263 -55.89571 5373 ft 99 kts 99°
2026-04-21 02:18 -12.41425 -55.88886 5353 ft 99 kts 102°
2026-04-21 02:19 -12.41511 -55.88191 5322 ft 98 kts 94°
2026-04-21 02:19 -12.41658 -55.87493 5251 ft 100 kts 103°
2026-04-21 02:19 -12.41829 -55.86814 5134 ft 98 kts 102°
2026-04-21 02:19 -12.41997 -55.86136 4986 ft 99 kts 103°
2026-04-21 02:20 -12.42249 -55.85475 4867 ft 99 kts 113°
2026-04-21 02:20 -12.42524 -55.84830 4754 ft 100 kts 109°
2026-04-21 02:20 -12.42780 -55.84170 4634 ft 101 kts 111°
2026-04-21 02:20 -12.43008 -55.83498 4525 ft 99 kts 102°
2026-04-21 02:21 -12.43132 -55.82804 4430 ft 99 kts 98°
2026-04-21 02:21 -12.43215 -55.82108 4327 ft 99 kts 96°
2026-04-21 02:21 -12.43291 -55.81413 4229 ft 101 kts 96°
2026-04-21 02:21 -12.43391 -55.80685 4103 ft 102 kts 98°
2026-04-21 02:22 -12.43546 -55.79982 3993 ft 103 kts 103°
2026-04-21 02:22 -12.43711 -55.79263 3890 ft 102 kts 103°
2026-04-21 02:22 -12.43900 -55.78576 3795 ft 100 kts 105°
2026-04-21 02:22 -12.44087 -55.77880 3624 ft 103 kts 102°
2026-04-21 02:23 -12.44237 -55.77181 3470 ft 100 kts 101°
2026-04-21 02:23 -12.44398 -55.76465 3253 ft 106 kts 107°
2026-04-21 02:23 -12.44642 -55.75762 3205 ft 103 kts 108°
2026-04-21 02:23 -12.44863 -55.75088 3066 ft 101 kts 109°
2026-04-21 02:24 -12.45083 -55.74397 2991 ft 101 kts 105°
2026-04-21 02:24 -12.45253 -55.73716 2884 ft 98 kts 102°
2026-04-21 02:24 -12.45425 -55.73046 2777 ft 96 kts 104°
2026-04-21 02:24 -12.45606 -55.72384 2622 ft 97 kts 108°
2026-04-21 02:25 -12.45839 -55.71727 2482 ft 98 kts 108°
2026-04-21 02:25 -12.46073 -55.71055 2328 ft 100 kts 110°
2026-04-21 02:25 -12.46330 -55.70415 2280 ft 93 kts 114°
2026-04-21 02:25 -12.46655 -55.69864 2270 ft 88 kts 122°
2026-04-21 02:26 -12.47090 -55.69492 2293 ft 86 kts 153°
2026-04-21 02:26 -12.47660 -55.69303 2312 ft 83 kts 171°
2026-04-21 02:26 -12.48226 -55.69359 2346 ft 82 kts 197°
2026-04-21 02:26 -12.48784 -55.69535 2292 ft 87 kts 194°
2026-04-21 02:27 -12.49370 -55.69674 2265 ft 87 kts 190°
2026-04-21 02:27 -12.49946 -55.69855 2237 ft 88 kts 201°
2026-04-21 02:27 -12.50531 -55.69987 2244 ft 86 kts 177°
2026-04-21 02:27 -12.51065 -55.69705 2115 ft 94 kts 127°
2026-04-21 02:28 -12.51319 -55.69115 2045 ft 90 kts 88°
2026-04-21 02:28 -12.50990 -55.68602 1942 ft 90 kts 27°
2026-04-21 02:28 -12.50378 -55.68441 1775 ft 90 kts 14°
2026-04-21 02:28 -12.49789 -55.68242 1651 ft 87 kts 22°
2026-04-21 02:29 -12.49258 -55.67983 1503 ft 82 kts 29°
2026-04-21 02:29 -12.48763 -55.67709 1344 ft 78 kts 29°
2026-04-21 02:29 -12.48311 -55.67464 1259 ft 67 kts 27°
2026-04-21 02:29 -12.47999 -55.67284 1252 ft 33 kts 37°
2026-04-21 02:30 -12.47944 -55.67257 1257 ft 9 kts 210°
2026-04-21 02:30 -12.47988 -55.67278 1256 ft 12 kts 208°
2026-04-21 02:30 -12.48022 -55.67342 1252 ft 8 kts 304°
2026-04-21 02:30 -12.47992 -55.67399 1253 ft 11 kts 298°
2026-04-21 02:31 -12.48003 -55.67461 1252 ft 11 kts 209°
2026-04-21 02:31 -12.48042 -55.67530 1252 ft 13 kts 298°
2026-04-21 02:31 -12.48004 -55.67539 1252 ft 0 kts 26°